�v������,���r���O(���x),�����t���O,���r���O(���x),�����t���O,��1(���x),�����t���O,��2���x),�����t���O,�������x,�����t���O
10/1/2004 0:00,27.6,1,61.8,1,26.6,1,27,1,0,0
10/1/2004 0:15,27.6,1,62.9,1,26.5,1,27,1,0,0
10/1/2004 0:30,27.5,1,62.2,1,26.5,1,27,1,0,0
10/1/2004 0:45,27.4,1,61.7,1,26.4,1,27.1,1,0,0
10/1/2004 1:00,27.4,1,61.7,1,26.4,1,27,1,0,0
10/1/2004 1:15,27.4,1,61.5,1,26.4,1,27,1,0,0
10/1/2004 1:30,27.4,1,61.6,1,26.3,1,27,1,0,0
10/1/2004 1:45,27.4,1,61.6,1,26.3,1,27,1,0,0
10/1/2004 2:00,27.3,1,61.5,1,26.3,1,26.9,1,0,0
10/1/2004 2:15,27.3,1,61.5,1,26.2,1,26.9,1,0,0
10/1/2004 2:30,27.3,1,61.4,1,26.2,1,26.9,1,0,0
10/1/2004 2:45,27.3,1,61.3,1,26.2,1,26.8,1,0,0
10/1/2004 3:00,27.3,1,61.2,1,26.2,1,26.8,1,0,0
10/1/2004 3:15,27.3,1,61.1,1,26.1,1,26.7,1,0,0
10/1/2004 3:30,27.3,1,61.1,1,26.1,1,26.7,1,0,0
10/1/2004 3:45,27.2,1,61,1,26.1,1,26.7,1,0,0
10/1/2004 4:00,27.2,1,60.9,1,26.1,1,26.7,1,0,0
10/1/2004 4:15,27.2,1,61,1,26.1,1,26.7,1,0,0
10/1/2004 4:30,27.2,1,60.9,1,26,1,26.6,1,0,0
10/1/2004 4:45,27.2,1,60.9,1,26,1,26.6,1,0,0
10/1/2004 5:00,27.2,1,60.9,1,26,1,26.6,1,0,0
10/1/2004 5:15,27.1,1,60.8,1,26,1,26.6,1,0,0
10/1/2004 5:30,27.1,1,60.8,1,25.9,1,26.6,1,0,0
10/1/2004 5:45,27.1,1,60.7,1,25.9,1,26.6,1,0,0
10/1/2004 6:00,27.1,1,60.7,1,25.9,1,26.5,1,0,0
10/1/2004 6:15,27.1,1,58.2,1,25.9,1,26.6,1,0,0
10/1/2004 6:30,27,1,56.2,1,25.9,1,26.6,1,0,0
10/1/2004 6:45,26.9,1,54.2,1,25.9,1,26.5,1,0,0
10/1/2004 7:00,26.9,1,55.1,1,25.8,1,26.5,1,0,0
10/1/2004 7:15,27,1,55.2,1,25.8,1,26.5,1,0,0
10/1/2004 7:30,26.9,1,54.7,1,25.8,1,26.5,1,0,0
10/1/2004 7:45,27,1,53.5,1,25.8,1,26.4,1,0,0
10/1/2004 8:00,26.9,1,53.8,1,25.7,1,26.4,1,0,0
10/1/2004 8:15,26.8,1,52.7,1,25.6,1,26.4,1,0,0
10/1/2004 8:30,26.7,1,50.7,1,25.5,1,26.3,1,0,0
10/1/2004 8:45,26.8,1,54.1,1,25.4,1,26.3,1,0,0
10/1/2004 9:00,26.9,1,55.9,1,25.4,1,26.2,1,0,0
10/1/2004 9:15,26.9,1,56.7,1,25.4,1,26.2,1,0,0
10/1/2004 9:30,26.9,1,57.2,1,25.4,1,26.2,1,0,0
10/1/2004 9:45,27,1,57.4,1,25.4,1,26.2,1,0,0
10/1/2004 10:00,27,1,57.6,1,25.4,1,26.2,1,0,0
10/1/2004 10:15,27.1,1,57.8,1,25.4,1,26.3,1,0,0
10/1/2004 10:30,27.1,1,58.1,1,25.4,1,26.3,1,0,0
10/1/2004 10:45,27.2,1,58.1,1,25.4,1,26.3,1,0,0
10/1/2004 11:00,27.3,1,58.1,1,25.4,1,26.3,1,0,0
10/1/2004 11:15,27.4,1,57.9,1,25.4,1,26.3,1,0,0
10/1/2004 11:30,27.4,1,57.9,1,25.5,1,26.4,1,0,0
10/1/2004 11:45,27.5,1,57.7,1,25.5,1,26.4,1,0,0
10/1/2004 12:00,27.5,1,57.3,1,25.5,1,26.4,1,0,0
10/1/2004 12:15,27.5,1,57.4,1,25.5,1,26.5,1,0,0
10/1/2004 12:30,27.5,1,57.6,1,25.5,1,26.5,1,0,0
10/1/2004 12:45,27.6,1,57.5,1,25.6,1,26.5,1,0,0
10/1/2004 13:00,27.6,1,57.2,1,25.6,1,26.5,1,0,0
10/1/2004 13:15,27.6,1,57.2,1,25.6,1,26.5,1,0,0
10/1/2004 13:30,27.6,1,57.5,1,25.6,1,26.5,1,0,0
10/1/2004 13:45,27.6,1,57.4,1,25.7,1,26.5,1,0,0
10/1/2004 14:00,27.6,1,57.9,1,25.7,1,26.5,1,0,0
10/1/2004 14:15,27.6,1,58,1,25.7,1,26.5,1,0,0
10/1/2004 14:30,27.5,1,57.7,1,25.7,1,26.5,1,0,0
10/1/2004 14:45,27.5,1,58,1,25.7,1,26.6,1,0,0
10/1/2004 15:00,27.5,1,58.3,1,25.7,1,26.5,1,0,0
10/1/2004 15:15,27.5,1,58.7,1,25.7,1,26.5,1,0,0
10/1/2004 15:30,27.4,1,58.8,1,25.7,1,26.5,1,0,0
10/1/2004 15:45,27.4,1,58.9,1,25.7,1,26.5,1,0,0
10/1/2004 16:00,27.4,1,58.9,1,25.7,1,26.5,1,0,0
10/1/2004 16:15,27.3,1,57.7,1,25.7,1,26.5,1,0,0
10/1/2004 16:30,27.2,1,53.7,1,25.7,1,26.5,1,0,0
10/1/2004 16:45,27.1,1,52.1,1,25.7,1,26.4,1,0,0
10/1/2004 17:00,27,1,52.1,1,25.7,1,26.4,1,0,0
10/1/2004 17:15,27,1,52.7,1,25.6,1,26.3,1,0,0
10/1/2004 17:30,27.1,1,53.5,1,25.6,1,26.3,1,0,0
10/1/2004 17:45,27.1,1,53.6,1,25.6,1,26.3,1,0,0
10/1/2004 18:00,27.1,1,54,1,25.7,1,26.3,1,0,0
10/1/2004 18:15,27.3,1,55.9,1,25.7,1,26.4,1,0,0
10/1/2004 18:30,27.2,1,55,1,25.7,1,26.4,1,0,0
10/1/2004 18:45,27.1,1,54.5,1,25.8,1,26.4,1,0,0
10/1/2004 19:00,27.2,1,55.5,1,25.7,1,26.4,1,0,0
10/1/2004 19:15,27.2,1,56,1,25.7,1,26.4,1,0,0
10/1/2004 19:30,27.2,1,56.2,1,25.7,1,26.4,1,0,0
10/1/2004 19:45,27.1,1,56.4,1,25.7,1,26.4,1,0,0
10/1/2004 20:00,27.1,1,56.5,1,25.7,1,26.4,1,0,0
10/1/2004 20:15,27.1,1,56.6,1,25.7,1,26.4,1,0,0
10/1/2004 20:30,27.1,1,56.5,1,25.7,1,26.4,1,0,0
10/1/2004 20:45,27.1,1,56.6,1,25.6,1,26.4,1,0,0
10/1/2004 21:00,27,1,56.8,1,25.6,1,26.4,1,0,0
10/1/2004 21:15,27,1,56.6,1,25.6,1,26.4,1,0,0
10/1/2004 21:30,27,1,56.6,1,25.6,1,26.4,1,0,0
10/1/2004 21:45,27,1,57.5,1,25.6,1,26.4,1,0,0
10/1/2004 22:00,27.1,1,58.4,1,25.6,1,26.4,1,0,0
10/1/2004 22:15,27.1,1,58.9,1,25.6,1,26.4,1,0,0
10/1/2004 22:30,27.1,1,59.3,1,25.7,1,26.4,1,0,0
10/1/2004 22:45,27.1,1,59.6,1,25.8,1,26.4,1,0,0
10/1/2004 23:00,27.1,1,59.8,1,25.9,1,26.4,1,0,0
10/1/2004 23:15,27.1,1,60,1,25.9,1,26.5,1,0,0
10/1/2004 23:30,27.1,1,60,1,25.9,1,26.5,1,0,0
10/1/2004 23:45,27.1,1,60.1,1,25.9,1,26.5,1,0,0
10/2/2004 0:00,27.1,1,60.3,1,25.9,1,26.5,1,0,0
10/2/2004 0:15,27.1,1,60.4,1,25.8,1,26.5,1,0,0
10/2/2004 0:30,27.1,1,61,1,25.9,1,26.5,1,0,0
10/2/2004 0:45,27.1,1,60.9,1,25.9,1,26.6,1,0,0
10/2/2004 1:00,27,1,59,1,25.9,1,26.6,1,0,0
10/2/2004 1:15,27.1,1,59.4,1,25.9,1,26.6,1,0,0
10/2/2004 1:30,27.1,1,59.4,1,25.9,1,26.5,1,0,0
10/2/2004 1:45,27.1,1,58.8,1,25.9,1,26.5,1,0,0
10/2/2004 2:00,27.1,1,58,1,25.8,1,26.5,1,0,0
10/2/2004 2:15,27.1,1,56.9,1,25.8,1,26.4,1,0,0
10/2/2004 2:30,27.1,1,58,1,25.8,1,26.4,1,0,0
10/2/2004 2:45,27.1,1,59.5,1,25.8,1,26.4,1,0,0
10/2/2004 3:00,27.1,1,60.1,1,25.8,1,26.5,1,0,0
10/2/2004 3:15,27.1,1,60.4,1,25.8,1,26.5,1,0,0
10/2/2004 3:30,27.1,1,60.7,1,25.8,1,26.5,1,0,0
10/2/2004 3:45,27.1,1,60.9,1,25.8,1,26.5,1,0,0
10/2/2004 4:00,27.1,1,61,1,25.7,1,26.5,1,0,0
10/2/2004 4:15,27,1,60.8,1,25.7,1,26.5,1,0,0
10/2/2004 4:30,27,1,60.9,1,25.7,1,26.5,1,0,0
10/2/2004 4:45,27,1,60.9,1,25.7,1,26.5,1,0,0
10/2/2004 5:00,27,1,60.9,1,25.7,1,26.5,1,0,0
10/2/2004 5:15,26.9,1,60.9,1,25.7,1,26.5,1,0,0
10/2/2004 5:30,26.9,1,60.9,1,25.7,1,26.4,1,0,0
10/2/2004 5:45,26.9,1,61,1,25.7,1,26.4,1,0,0
10/2/2004 6:00,26.9,1,61,1,25.6,1,26.4,1,0,0
10/2/2004 6:15,26.9,1,61,1,25.6,1,26.4,1,0,0
10/2/2004 6:30,26.9,1,61,1,25.6,1,26.4,1,0,0
10/2/2004 6:45,26.9,1,61.1,1,25.6,1,26.4,1,0,0
10/2/2004 7:00,26.9,1,61.1,1,25.6,1,26.4,1,0,0
10/2/2004 7:15,26.9,1,61,1,25.6,1,26.4,1,0,0
10/2/2004 7:30,26.9,1,61,1,25.6,1,26.4,1,0,0
10/2/2004 7:45,26.9,1,61,1,25.6,1,26.4,1,0,0
10/2/2004 8:00,26.9,1,61,1,25.5,1,26.4,1,0,0
10/2/2004 8:15,26.9,1,61,1,25.5,1,26.4,1,0,0
10/2/2004 8:30,26.9,1,61.1,1,25.5,1,26.4,1,0,0
10/2/2004 8:45,26.9,1,61.3,1,25.5,1,26.4,1,0,0
10/2/2004 9:00,26.9,1,61.4,1,25.6,1,26.4,1,0,0
10/2/2004 9:15,27,1,61.4,1,25.5,1,26.4,1,0,0
10/2/2004 9:30,27.1,1,60.9,1,25.5,1,26.4,1,0,0
10/2/2004 9:45,27.2,1,60.7,1,25.6,1,26.4,1,0,0
10/2/2004 10:00,27.2,1,60.6,1,25.6,1,26.5,1,0,0
10/2/2004 10:15,27.2,1,59.5,1,25.6,1,26.4,1,0,0
10/2/2004 10:30,27.7,1,57.5,1,25.6,1,26.4,1,0,0
10/2/2004 10:45,28.1,1,57.5,1,25.7,1,26.6,1,0,0
10/2/2004 11:00,28.1,1,56.2,1,25.7,1,26.7,1,0,0
10/2/2004 11:15,27.9,1,57.6,1,25.7,1,26.7,1,0,0
10/2/2004 11:30,27.9,1,57.1,1,25.8,1,26.7,1,0,0
10/2/2004 11:45,27.9,1,56.8,1,25.9,1,26.7,1,0,0
10/2/2004 12:00,28,1,57.2,1,26,1,26.8,1,0,0
10/2/2004 12:15,28,1,57,1,26.1,1,26.8,1,0,0
10/2/2004 12:30,28,1,56.8,1,26.2,1,26.9,1,0,0
10/2/2004 12:45,28.2,1,56.6,1,26.3,1,26.9,1,0,0
10/2/2004 13:00,28.1,1,56.4,1,26.2,1,26.9,1,0,0
10/2/2004 13:15,28,1,55.4,1,26.2,1,26.9,1,0,0
10/2/2004 13:30,27.9,1,56.1,1,26.2,1,26.8,1,0,0
10/2/2004 13:45,27.9,1,56,1,26.1,1,26.8,1,0,0
10/2/2004 14:00,27.9,1,55.4,1,26.2,1,26.8,1,0,0
10/2/2004 14:15,27.9,1,55.6,1,26.2,1,26.8,1,0,0
10/2/2004 14:30,27.8,1,56,1,26.3,1,26.8,1,0,0
10/2/2004 14:45,28,1,55.6,1,26.4,1,26.8,1,0,0
10/2/2004 15:00,27.9,1,55.3,1,26.4,1,26.8,1,0,0
10/2/2004 15:15,27.9,1,55.4,1,26.4,1,26.8,1,0,0
10/2/2004 15:30,27.8,1,55.9,1,26.4,1,26.8,1,0,0
10/2/2004 15:45,27.8,1,55.8,1,26.3,1,26.8,1,0,0
10/2/2004 16:00,27.8,1,55.6,1,26.2,1,26.8,1,0,0
10/2/2004 16:15,27.7,1,56.7,1,26.2,1,26.7,1,0,0
10/2/2004 16:30,27.6,1,57.5,1,26.2,1,26.7,1,0,0
10/2/2004 16:45,27.6,1,58.6,1,26.1,1,26.7,1,0,0
10/2/2004 17:00,27.6,1,59.3,1,26.1,1,26.7,1,0,0
10/2/2004 17:15,27.5,1,59.7,1,26.1,1,26.7,1,0,0
10/2/2004 17:30,27.5,1,60,1,26,1,26.7,1,0,0
10/2/2004 17:45,27.5,1,60.1,1,26,1,26.7,1,0,0
10/2/2004 18:00,27.5,1,60.5,1,26,1,26.6,1,0,0
10/2/2004 18:15,27.4,1,60.7,1,25.9,1,26.6,1,0,0
10/2/2004 18:30,27.4,1,61.4,1,25.9,1,26.6,1,0,0
10/2/2004 18:45,27.4,1,61.9,1,25.9,1,26.6,1,0,0
10/2/2004 19:00,27.6,1,63.3,1,25.9,1,26.7,1,0,0
10/2/2004 19:15,27.5,1,62.1,1,25.9,1,26.8,1,0,0
10/2/2004 19:30,27.6,1,62.6,1,26,1,26.8,1,0,0
10/2/2004 19:45,27.6,1,62.8,1,26,1,26.8,1,0,0
10/2/2004 20:00,27.5,1,63.6,1,26,1,26.8,1,0,0
10/2/2004 20:15,27.5,1,64.2,1,26,1,26.8,1,0,0
10/2/2004 20:30,27.6,1,63.6,1,26,1,26.8,1,0,0
10/2/2004 20:45,27.6,1,63.1,1,26,1,26.8,1,0,0
10/2/2004 21:00,27.7,1,64.1,1,26,1,26.9,1,0,0
10/2/2004 21:15,27.6,1,64.6,1,26,1,26.9,1,0,0
10/2/2004 21:30,27.8,1,65.5,1,26.1,1,27,1,0,0
10/2/2004 21:45,27.8,1,67.8,1,26.2,1,27.1,1,0,0
10/2/2004 22:00,28,1,66.9,1,26.2,1,27.2,1,0,0
10/2/2004 22:15,28,1,66.2,1,26.2,1,27.2,1,0,0
10/2/2004 22:30,27.8,1,65.7,1,26.2,1,27.1,1,0,0
10/2/2004 22:45,27.8,1,65.1,1,26.2,1,27.1,1,0,0
10/2/2004 23:00,27.8,1,65.2,1,26.2,1,27.1,1,0,0
10/2/2004 23:15,27.8,1,64.5,1,26.2,1,27.1,1,0,0
10/2/2004 23:30,27.8,1,64.7,1,26.2,1,27.1,1,0,0
10/2/2004 23:45,27.8,1,64.5,1,26.2,1,27,1,0,0
10/3/2004 0:00,27.8,1,64.5,1,26.2,1,27,1,0,0
10/3/2004 0:15,27.7,1,64.9,1,26.2,1,27,1,0,0
10/3/2004 0:30,27.7,1,64.9,1,26.2,1,27,1,0,0
10/3/2004 0:45,27.7,1,64.9,1,26.2,1,27,1,0,0
10/3/2004 1:00,27.7,1,65.1,1,26.3,1,27,1,0,0
10/3/2004 1:15,27.7,1,65.6,1,26.3,1,27,1,0,0
10/3/2004 1:30,27.7,1,66.1,1,26.3,1,27,1,0,0
10/3/2004 1:45,27.7,1,66.3,1,26.3,1,27,1,0,0
10/3/2004 2:00,27.7,1,66,1,26.3,1,27,1,0,0
10/3/2004 2:15,27.7,1,66.5,1,26.3,1,27,1,0,0
10/3/2004 2:30,27.7,1,67.2,1,26.3,1,27,1,0,0
10/3/2004 2:45,27.7,1,66.5,1,26.3,1,27,1,0,0
10/3/2004 3:00,27.6,1,66.1,1,26.3,1,27,1,0,0
10/3/2004 3:15,27.7,1,66,1,26.2,1,27,1,0,0
10/3/2004 3:30,27.6,1,65.8,1,26.2,1,26.9,1,0,0
10/3/2004 3:45,27.6,1,65.8,1,26.2,1,26.9,1,0,0
10/3/2004 4:00,27.6,1,65.8,1,26.2,1,26.9,1,0,0
10/3/2004 4:15,27.6,1,65.7,1,26.2,1,26.9,1,0,0
10/3/2004 4:30,27.6,1,65.9,1,26.2,1,26.9,1,0,0
10/3/2004 4:45,27.6,1,65.1,1,26.2,1,26.9,1,0,0
10/3/2004 5:00,27.6,1,65.1,1,26.1,1,26.9,1,0,0
10/3/2004 5:15,27.5,1,64.7,1,26.1,1,26.9,1,0,0
10/3/2004 5:30,27.5,1,65.1,1,26.1,1,26.9,1,0,0
10/3/2004 5:45,27.5,1,65.5,1,26.1,1,26.9,1,0,0
10/3/2004 6:00,27.5,1,65.5,1,26.1,1,26.9,1,0,0
10/3/2004 6:15,27.5,1,65.5,1,26.1,1,26.9,1,0,0
10/3/2004 6:30,27.5,1,65.4,1,26.1,1,26.9,1,0,0
10/3/2004 6:45,27.5,1,65.4,1,26.1,1,26.9,1,0,0
10/3/2004 7:00,27.5,1,65.2,1,26,1,26.9,1,0,0
10/3/2004 7:15,27.5,1,65.1,1,26,1,26.9,1,0,0
10/3/2004 7:30,27.4,1,64.5,1,26,1,26.8,1,0,0
10/3/2004 7:45,27.5,1,64.9,1,26,1,26.8,1,0,0
10/3/2004 8:00,27.5,1,65.1,1,26,1,26.8,1,0,0
10/3/2004 8:15,27.5,1,65.1,1,26,1,26.8,1,0,0
10/3/2004 8:30,27.4,1,65.1,1,26,1,26.8,1,0,0
10/3/2004 8:45,27.4,1,65,1,25.9,1,26.8,1,0,0
10/3/2004 9:00,27.4,1,64.8,1,25.9,1,26.7,1,0,0
10/3/2004 9:15,27.4,1,64.7,1,25.9,1,26.7,1,0,0
10/3/2004 9:30,27.4,1,64.5,1,25.9,1,26.7,1,0,0
10/3/2004 9:45,27.3,1,64.4,1,25.9,1,26.7,1,0,0
10/3/2004 10:00,27.3,1,64.3,1,25.8,1,26.7,1,0,0
10/3/2004 10:15,27.3,1,64.2,1,25.8,1,26.6,1,0,0
10/3/2004 10:30,27.3,1,64.3,1,25.8,1,26.6,1,0,0
10/3/2004 10:45,27.3,1,64.2,1,25.8,1,26.6,1,0,0
10/3/2004 11:00,27.3,1,64.3,1,25.7,1,26.6,1,0,0
10/3/2004 11:15,27.2,1,64.4,1,25.7,1,26.6,1,0,0
10/3/2004 11:30,27.1,1,61.9,1,25.7,1,26.6,1,0,0
10/3/2004 11:45,27,1,61.4,1,25.7,1,26.5,1,0,0
10/3/2004 12:00,27,1,61.3,1,25.7,1,26.5,1,0,0
10/3/2004 12:15,26.9,1,61.2,1,25.6,1,26.5,1,0,0
10/3/2004 12:30,26.9,1,60.7,1,25.6,1,26.5,1,0,0
10/3/2004 12:45,26.8,1,60.4,1,25.6,1,26.4,1,0,0
10/3/2004 13:00,26.8,1,60.4,1,25.5,1,26.4,1,0,0
10/3/2004 13:15,26.7,1,60.5,1,25.5,1,26.3,1,0,0
10/3/2004 13:30,26.6,1,61,1,25.5,1,26.3,1,0,0
10/3/2004 13:45,26.7,1,60.8,1,25.4,1,26.3,1,0,0
10/3/2004 14:00,26.6,1,60.2,1,25.4,1,26.3,1,0,0
10/3/2004 14:15,26.6,1,60.1,1,25.4,1,26.2,1,0,0
10/3/2004 14:30,26.5,1,59.9,1,25.3,1,26.2,1,0,0
10/3/2004 14:45,26.5,1,60,1,25.3,1,26.2,1,0,0
10/3/2004 15:00,26.5,1,59.9,1,25.3,1,26.2,1,0,0
10/3/2004 15:15,26.4,1,59.7,1,25.2,1,26.1,1,0,0
10/3/2004 15:30,26.4,1,59.4,1,25.2,1,26.1,1,0,0
10/3/2004 15:45,26.4,1,59.7,1,25.2,1,26.1,1,0,0
10/3/2004 16:00,26.4,1,59.5,1,25.2,1,26.1,1,0,0
10/3/2004 16:15,26.3,1,59.3,1,25.1,1,26.1,1,0,0
10/3/2004 16:30,26.3,1,59.4,1,25.1,1,26,1,0,0
10/3/2004 16:45,26.3,1,59.4,1,25.1,1,26,1,0,0
10/3/2004 17:00,26.3,1,59.4,1,25.1,1,26,1,0,0
10/3/2004 17:15,26.4,1,61.1,1,25,1,26,1,0,0
10/3/2004 17:30,26.5,1,61.8,1,25,1,26,1,0,0
10/3/2004 17:45,26.5,1,61.8,1,25,1,26,1,0,0
10/3/2004 18:00,26.5,1,62.1,1,25,1,26,1,0,0
10/3/2004 18:15,26.6,1,62.2,1,25,1,26,1,0,0
10/3/2004 18:30,26.6,1,62.3,1,25,1,26.1,1,0,0
10/3/2004 18:45,26.6,1,62.4,1,25,1,26.1,1,0,0
10/3/2004 19:00,26.6,1,62.5,1,25,1,26.1,1,0,0
10/3/2004 19:15,26.6,1,62.2,1,25,1,26.1,1,0,0
10/3/2004 19:30,26.5,1,59.1,1,25,1,26.1,1,0,0
10/3/2004 19:45,26.4,1,58,1,25,1,26.1,1,0,0
10/3/2004 20:00,26.4,1,57.6,1,25,1,26.1,1,0,0
10/3/2004 20:15,26.4,1,57.6,1,25,1,26.1,1,0,0
10/3/2004 20:30,26.4,1,58.4,1,25.1,1,26.1,1,0,0
10/3/2004 20:45,26.5,1,58.8,1,25.1,1,26.1,1,0,0
10/3/2004 21:00,26.6,1,59.1,1,25.1,1,26.1,1,0,0
10/3/2004 21:15,26.6,1,59.3,1,25.1,1,26.1,1,0,0
10/3/2004 21:30,26.6,1,58.8,1,25.2,1,26.1,1,0,0
10/3/2004 21:45,26.6,1,58.7,1,25.4,1,26.2,1,0,0
10/3/2004 22:00,26.6,1,58.6,1,25.4,1,26.3,1,0,0
10/3/2004 22:15,26.6,1,58.7,1,25.5,1,26.4,1,0,0
10/3/2004 22:30,26.6,1,58.8,1,25.6,1,26.5,1,0,0
10/3/2004 22:45,26.6,1,59.3,1,25.7,1,26.6,1,0,0
10/3/2004 23:00,26.6,1,59.7,1,25.7,1,26.7,1,0,0
10/3/2004 23:15,26.6,1,59.1,1,25.8,1,26.7,1,0,0
10/3/2004 23:30,26.6,1,59.8,1,25.9,1,26.7,1,0,0
10/3/2004 23:45,26.6,1,59,1,25.9,1,26.6,1,0,0
10/4/2004 0:00,26.6,1,60.3,1,25.9,1,26.6,1,0,0
10/4/2004 0:15,26.6,1,60.4,1,26,1,26.5,1,0,0
10/4/2004 0:30,26.7,1,59.8,1,26,1,26.5,1,0,0
10/4/2004 0:45,26.6,1,60.1,1,26,1,26.4,1,0,0
10/4/2004 1:00,26.6,1,58.6,1,26.1,1,26.4,1,0,0
10/4/2004 1:15,26.5,1,57.4,1,26.1,1,26.4,1,0,0
10/4/2004 1:30,26.5,1,57,1,26.1,1,26.5,1,0,0
10/4/2004 1:45,26.5,1,57.1,1,26.1,1,26.5,1,0,0
10/4/2004 2:00,26.5,1,58.3,1,26.1,1,26.5,1,0,0
10/4/2004 2:15,26.5,1,57.7,1,26,1,26.5,1,0,0
10/4/2004 2:30,26.4,1,57.5,1,25.9,1,26.6,1,0,0
10/4/2004 2:45,26.4,1,57.1,1,25.9,1,26.6,1,0,0
10/4/2004 3:00,26.4,1,59.7,1,25.8,1,26.5,1,0,0
10/4/2004 3:15,26.4,1,60.8,1,25.7,1,26.4,1,0,0
10/4/2004 3:30,26.4,1,61.3,1,25.6,1,26.3,1,0,0
10/4/2004 3:45,26.3,1,61.6,1,25.5,1,26.3,1,0,0
10/4/2004 4:00,26.3,1,61.9,1,25.5,1,26.2,1,0,0
10/4/2004 4:15,26.3,1,62.3,1,25.4,1,26.2,1,0,0
10/4/2004 4:30,26.3,1,62.4,1,25.3,1,26.1,1,0,0
10/4/2004 4:45,26.3,1,62.5,1,25.3,1,26.1,1,0,0
10/4/2004 5:00,26.2,1,62.5,1,25.2,1,26.1,1,0,0
10/4/2004 5:15,26.2,1,62.5,1,25.2,1,26,1,0,0
10/4/2004 5:30,26.2,1,62.6,1,25.2,1,26,1,0,0
10/4/2004 5:45,26.2,1,62.6,1,25.1,1,26,1,0,0
10/4/2004 6:00,26.2,1,62.6,1,25.1,1,26,1,0,0
10/4/2004 6:15,26.2,1,62.5,1,25.1,1,26,1,0,0
10/4/2004 6:30,26.2,1,62.5,1,25.1,1,26,1,0,0
10/4/2004 6:45,26.2,1,62.6,1,25,1,26,1,0,0
10/4/2004 7:00,26.2,1,62.8,1,25,1,26,1,0,0
10/4/2004 7:15,26,1,59,1,25,1,25.9,1,0,0
10/4/2004 7:30,26.1,1,59.2,1,25,1,25.9,1,0,0
10/4/2004 7:45,26.1,1,60.4,1,24.9,1,25.9,1,22,1
10/4/2004 8:00,26.2,1,60.9,1,24.9,1,25.9,1,22,1
10/4/2004 8:15,26.1,1,61.1,1,24.9,1,25.8,1,22.1,1
10/4/2004 8:30,26.1,1,61.3,1,24.8,1,25.8,1,22.1,1
10/4/2004 8:45,26,1,61.3,1,24.8,1,25.8,1,22.2,1
10/4/2004 9:00,26,1,61.5,1,24.8,1,25.8,1,22.2,1
10/4/2004 9:15,25.8,1,58.4,1,24.8,1,25.8,1,22.2,1
10/4/2004 9:30,25.7,1,57.5,1,24.7,1,25.7,1,22.2,1
10/4/2004 9:45,25.8,1,57.3,1,24.7,1,25.7,1,22.2,1
10/4/2004 10:00,25.7,1,57,1,24.6,1,25.6,1,22.3,1
10/4/2004 10:15,25.6,1,57.5,1,24.6,1,25.6,1,22.3,1
10/4/2004 10:30,25.7,1,57.7,1,24.6,1,25.6,1,22.3,1
10/4/2004 10:45,25.6,1,58.8,1,24.6,1,25.6,1,22.4,1
10/4/2004 11:00,25.5,1,59.8,1,24.5,1,25.6,1,22,1
10/4/2004 11:15,25.7,1,59.6,1,24.5,1,25.6,1,22,1
10/4/2004 11:30,25.8,1,60.8,1,24.5,1,25.5,1,22.1,1
10/4/2004 11:45,25.8,1,60.8,1,24.5,1,25.5,1,22.1,1
10/4/2004 12:00,25.8,1,61,1,24.5,1,25.5,1,22.1,1
10/4/2004 12:15,25.8,1,61.1,1,24.5,1,25.5,1,22.2,1
10/4/2004 12:30,25.8,1,61.2,1,24.5,1,25.5,1,22.2,1
10/4/2004 12:45,25.8,1,61.3,1,24.4,1,25.5,1,22.2,1
10/4/2004 13:00,25.8,1,61.9,1,24.4,1,25.5,1,22,1
10/4/2004 13:15,26,1,62.2,1,24.4,1,25.5,1,21.9,1
10/4/2004 13:30,26,1,63,1,24.5,1,25.5,1,21.9,1
10/4/2004 13:45,25.9,1,62.5,1,24.4,1,25.5,1,22,1
10/4/2004 14:00,25.9,1,62.1,1,24.4,1,25.5,1,22,1
10/4/2004 14:15,25.8,1,62,1,24.4,1,25.5,1,22,1
10/4/2004 14:30,25.8,1,62,1,24.4,1,25.5,1,22.1,1
10/4/2004 14:45,26,1,62.1,1,24.4,1,25.5,1,22.1,1
10/4/2004 15:00,26,1,62.4,1,24.4,1,25.5,1,22.1,1
10/4/2004 15:15,25.9,1,62.3,1,24.4,1,25.5,1,22.2,1
10/4/2004 15:30,25.9,1,62.1,1,24.4,1,25.5,1,21.9,1
10/4/2004 15:45,25.8,1,61.9,1,24.4,1,25.5,1,22.1,1
10/4/2004 16:00,25.8,1,61.9,1,24.4,1,25.5,1,22.2,1
10/4/2004 16:15,25.8,1,62.2,1,24.4,1,25.5,1,22.2,1
10/4/2004 16:30,25.8,1,62.5,1,24.4,1,25.5,1,22.2,1
10/4/2004 16:45,25.8,1,62.6,1,24.4,1,25.5,1,22.2,1
10/4/2004 17:00,25.8,1,62.2,1,24.4,1,25.5,1,22.3,1
10/4/2004 17:15,25.8,1,62.5,1,24.4,1,25.5,1,22.3,1
10/4/2004 17:30,25.8,1,61.9,1,24.4,1,25.4,1,22.3,1
10/4/2004 17:45,25.9,1,61.6,1,24.4,1,25.5,1,22.4,1
10/4/2004 18:00,25.8,1,62.8,1,24.5,1,25.5,1,22.4,1
10/4/2004 18:15,26.1,1,63.1,1,24.5,1,25.6,1,22.4,1
10/4/2004 18:30,26.1,1,63.5,1,24.5,1,25.6,1,21.9,1
10/4/2004 18:45,26,1,64,1,24.6,1,25.6,1,21.5,1
10/4/2004 19:00,26,1,64.1,1,24.6,1,25.6,1,21.5,1
10/4/2004 19:15,26,1,64,1,24.5,1,25.6,1,21.6,1
10/4/2004 19:30,26,1,63.8,1,24.5,1,25.6,1,21.6,1
10/4/2004 19:45,26,1,63.7,1,24.5,1,25.6,1,21.7,1
10/4/2004 20:00,26,1,63.5,1,24.5,1,25.6,1,21.7,1
10/4/2004 20:15,26,1,63.4,1,24.5,1,25.6,1,21.7,1
10/4/2004 20:30,26,1,63.4,1,24.5,1,25.6,1,21.8,1
10/4/2004 20:45,26,1,63.3,1,24.5,1,25.6,1,21.8,1
10/4/2004 21:00,26,1,63.3,1,24.5,1,25.6,1,21.9,1
10/4/2004 21:15,26.1,1,63.5,1,24.5,1,25.6,1,21.9,1
10/4/2004 21:30,26,1,63.5,1,24.5,1,25.6,1,21.9,1
10/4/2004 21:45,26,1,63.4,1,24.5,1,25.6,1,22,1
10/4/2004 22:00,26.1,1,64.3,1,24.5,1,25.6,1,22,1
10/4/2004 22:15,26.2,1,65.2,1,24.5,1,25.7,1,22,1
10/4/2004 22:30,26.2,1,66.5,1,24.6,1,25.8,1,22.1,1
10/4/2004 22:45,26.2,1,66.8,1,24.6,1,25.8,1,22.1,1
10/4/2004 23:00,26.2,1,66.9,1,24.6,1,25.8,1,22.2,1
10/4/2004 23:15,26.2,1,67,1,24.6,1,25.8,1,22.2,1
10/4/2004 23:30,26.2,1,66.8,1,24.6,1,25.8,1,22.2,1
10/4/2004 23:45,26.2,1,66.6,1,24.6,1,25.8,1,22.2,1
10/5/2004 0:00,26.2,1,66.3,1,24.6,1,25.8,1,22.3,1
10/5/2004 0:15,26.1,1,66.3,1,24.6,1,25.8,1,22,1
10/5/2004 0:30,26.1,1,66.3,1,24.6,1,25.8,1,22,1
10/5/2004 0:45,26.1,1,66.3,1,24.5,1,25.8,1,22.1,1
10/5/2004 1:00,26.1,1,66.2,1,24.5,1,25.9,1,22.1,1
10/5/2004 1:15,26.1,1,66.3,1,24.5,1,25.9,1,22.1,1
10/5/2004 1:30,26.1,1,66.1,1,24.5,1,25.9,1,22.2,1
10/5/2004 1:45,26.1,1,66.1,1,24.5,1,26,1,22.2,1
10/5/2004 2:00,26,1,66.1,1,24.5,1,26,1,22.2,1
10/5/2004 2:15,26,1,65.7,1,24.6,1,26,1,21.6,1
10/5/2004 2:30,26,1,65.5,1,24.6,1,26,1,21.6,1
10/5/2004 2:45,26,1,65.4,1,24.6,1,26,1,21.1,1
10/5/2004 3:00,25.9,1,65.4,1,24.6,1,25.9,1,21.2,1
10/5/2004 3:15,25.9,1,65.3,1,24.6,1,25.8,1,21.2,1
10/5/2004 3:30,25.9,1,65.2,1,24.5,1,25.8,1,21.3,1
10/5/2004 3:45,25.9,1,65.2,1,24.5,1,25.7,1,21.3,1
10/5/2004 4:00,25.8,1,65.1,1,24.5,1,25.7,1,21.4,1
10/5/2004 4:15,25.9,1,65.1,1,24.5,1,25.6,1,21.4,1
10/5/2004 4:30,25.8,1,64.9,1,24.5,1,25.6,1,21.4,1
10/5/2004 4:45,25.8,1,64.8,1,24.5,1,25.6,1,21.5,1
10/5/2004 5:00,25.8,1,64.8,1,24.5,1,25.5,1,21.5,1
10/5/2004 5:15,25.8,1,64.8,1,24.4,1,25.5,1,21.5,1
10/5/2004 5:30,25.8,1,64.8,1,24.4,1,25.5,1,21.6,1
10/5/2004 5:45,25.8,1,64.8,1,24.4,1,25.5,1,21.6,1
10/5/2004 6:00,25.7,1,64.7,1,24.4,1,25.5,1,21.7,1
10/5/2004 6:15,25.7,1,64.7,1,24.4,1,25.4,1,21.7,1
10/5/2004 6:30,25.5,1,60.2,1,24.4,1,25.4,1,21.1,1
10/5/2004 6:45,25.5,1,59.1,1,24.3,1,25.4,1,21.1,1
10/5/2004 7:00,25.6,1,62.6,1,24.3,1,25.4,1,21.2,1
10/5/2004 7:15,25.8,1,63.3,1,24.3,1,25.3,1,21.2,1
10/5/2004 7:30,25.7,1,61.2,1,24.4,1,25.3,1,21.1,1
10/5/2004 7:45,25.6,1,59.9,1,24.4,1,25.3,1,21.2,1
10/5/2004 8:00,25.3,1,59.5,1,23,1,25.2,1,21.2,1
10/5/2004 8:15,25.1,1,59.2,1,23.4,1,25.2,1,21.2,1
10/5/2004 8:30,25.3,1,60.8,1,23.6,1,25.1,1,21.3,1
10/5/2004 8:45,25.3,1,61.4,1,23.6,1,25.1,1,21.5,1
10/5/2004 9:00,25.4,1,63.7,1,23.7,1,25.1,1,21.5,1
10/5/2004 9:15,25.3,1,64.3,1,23.7,1,25.1,1,21.6,1
10/5/2004 9:30,25.3,1,64.5,1,23.7,1,25.1,1,21.6,1
10/5/2004 9:45,25.3,1,64.8,1,23.7,1,25.1,1,21.6,1
10/5/2004 10:00,25.3,1,64.9,1,23.8,1,25.1,1,21.7,1
10/5/2004 10:15,25.3,1,65.1,1,23.8,1,25,1,21.7,1
10/5/2004 10:30,25.2,1,65.2,1,23.8,1,25,1,21.7,1
10/5/2004 10:45,25.2,1,65.2,1,23.8,1,25,1,21.7,1
10/5/2004 11:00,25.2,1,65,1,23.8,1,25,1,21.8,1
10/5/2004 11:15,25.2,1,65.1,1,23.8,1,25,1,21.8,1
10/5/2004 11:30,25.2,1,65,1,23.8,1,25,1,21.9,1
10/5/2004 11:45,25.2,1,65.1,1,23.7,1,25,1,21.9,1
10/5/2004 12:00,25.1,1,65,1,23.7,1,25,1,21.9,1
10/5/2004 12:15,25.1,1,64.9,1,23.7,1,25,1,21.9,1
10/5/2004 12:30,25.1,1,64.8,1,23.7,1,25,1,22,1
10/5/2004 12:45,25.1,1,64.8,1,23.7,1,24.9,1,22,1
10/5/2004 13:00,25.1,1,64.7,1,23.7,1,24.9,1,22,1
10/5/2004 13:15,25.1,1,64.7,1,23.7,1,24.9,1,22.1,1
10/5/2004 13:30,25.1,1,64.6,1,23.7,1,24.9,1,22.1,1
10/5/2004 13:45,25.1,1,64.6,1,23.7,1,24.9,1,22.1,1
10/5/2004 14:00,25,1,64.5,1,23.7,1,24.9,1,22.2,1
10/5/2004 14:15,25,1,64.5,1,23.7,1,24.9,1,22.2,1
10/5/2004 14:30,25,1,64.4,1,23.6,1,24.9,1,22.2,1
10/5/2004 14:45,25,1,64.4,1,23.6,1,24.9,1,22.3,1
10/5/2004 15:00,25,1,64.3,1,23.6,1,24.9,1,22.3,1
10/5/2004 15:15,25,1,64.3,1,23.6,1,24.8,1,22.3,1
10/5/2004 15:30,25,1,64.3,1,23.6,1,24.8,1,22.3,1
10/5/2004 15:45,25,1,64.3,1,23.6,1,24.8,1,22.4,1
10/5/2004 16:00,25,1,64.3,1,23.6,1,24.8,1,22.4,1
10/5/2004 16:15,25,1,64.2,1,23.6,1,24.8,1,22.4,1
10/5/2004 16:30,24.9,1,64.2,1,23.6,1,24.8,1,22.5,1
10/5/2004 16:45,25.1,1,65,1,23.6,1,24.8,1,22.2,1
10/5/2004 17:00,25.2,1,66.5,1,23.7,1,24.9,1,22.2,1
10/5/2004 17:15,25.2,1,66.6,1,23.7,1,24.9,1,21.4,1
10/5/2004 17:30,25.2,1,66.6,1,23.7,1,24.9,1,21.4,1
10/5/2004 17:45,25.2,1,66.6,1,23.7,1,24.9,1,21.4,1
10/5/2004 18:00,25.2,1,66.5,1,23.6,1,24.9,1,21.4,1
10/5/2004 18:15,25.2,1,66.3,1,23.6,1,24.9,1,21.5,1
10/5/2004 18:30,25.2,1,66.2,1,23.6,1,24.9,1,21.5,1
10/5/2004 18:45,25.2,1,66,1,23.6,1,24.9,1,21,1
10/5/2004 19:00,25.4,1,65.9,1,23.7,1,24.9,1,21,1
10/5/2004 19:15,25.5,1,67.4,1,23.8,1,25.1,1,21,1
10/5/2004 19:30,25.5,1,67.6,1,23.8,1,25.1,1,21.1,1
10/5/2004 19:45,25.5,1,67.7,1,23.8,1,25.1,1,21.1,1
10/5/2004 20:00,25.4,1,67.6,1,23.8,1,25.1,1,21.1,1
10/5/2004 20:15,25.4,1,67.2,1,23.9,1,25.1,1,21.2,1
10/5/2004 20:30,25.3,1,65.9,1,23.9,1,25.1,1,21.2,1
10/5/2004 20:45,25.2,1,65.1,1,23.9,1,25,1,21.3,1
10/5/2004 21:00,25.1,1,64.6,1,23.8,1,25,1,21.3,1
10/5/2004 21:15,25.4,1,64.7,1,23.8,1,25,1,21.4,1
10/5/2004 21:30,25.4,1,64.8,1,23.9,1,25,1,21.4,1
10/5/2004 21:45,25.4,1,65.9,1,23.9,1,25,1,21.4,1
10/5/2004 22:00,25.2,1,63.3,1,24,1,25,1,21.5,1
10/5/2004 22:15,25.2,1,62.7,1,24.1,1,25,1,21.2,1
10/5/2004 22:30,25.3,1,62.7,1,24.2,1,25.1,1,21.3,1
10/5/2004 22:45,25.4,1,62.9,1,24.2,1,25.2,1,21.3,1
10/5/2004 23:00,25.5,1,65.4,1,24.3,1,25.2,1,21.2,1
10/5/2004 23:15,25.5,1,65.8,1,24.3,1,25.2,1,21.2,1
10/5/2004 23:30,25.5,1,66.5,1,24.4,1,25.2,1,21.3,1
10/5/2004 23:45,25.5,1,66.7,1,24.4,1,25.2,1,21.3,1
10/6/2004 0:00,25.5,1,66.5,1,24.4,1,25.2,1,21.4,1
10/6/2004 0:15,25.5,1,66.6,1,24.4,1,25.1,1,21.4,1
10/6/2004 0:30,25.5,1,66.3,1,24.4,1,25.1,1,21.4,1
10/6/2004 0:45,25.5,1,66.5,1,24.4,1,25.1,1,21.4,1
10/6/2004 1:00,25.5,1,66.3,1,24.3,1,25.1,1,21.4,1
10/6/2004 1:15,25.5,1,66.1,1,24.3,1,25.1,1,21.5,1
10/6/2004 1:30,25.5,1,66,1,24.2,1,25,1,21.5,1
10/6/2004 1:45,25.4,1,65.8,1,24.2,1,25,1,21.5,1
10/6/2004 2:00,25.4,1,65.8,1,24.2,1,25,1,21.5,1
10/6/2004 2:15,25.4,1,65.7,1,24.1,1,25,1,20.7,1